Weather reports worldwide

Advertisment
Jerez De La Frontera aeropuert, Spain (8451): temperature & dewpoint: 20.09.2018 17:00:00 - 26.09.2018 17:00:00 (CEST)Jerez De La Frontera aeropuert, Spain (8451): wind speed: 20.09.2018 17:00:00 - 26.09.2018 17:00:00 (CEST)Jerez De La Frontera aeropuert, Spain (8451): wind direction: 20.09.2018 17:00:00 - 26.09.2018 17:00:00 (CEST)Jerez De La Frontera aeropuert, Spain (8451): reduced air pressure: 20.09.2018 17:00:00 - 26.09.2018 17:00:00 (CEST)Jerez De La Frontera aeropuert, Spain (8451): visibility: 20.09.2018 17:00:00 - 26.09.2018 17:00:00 (CEST)
Date & Time tt [°C] td [°C] ff [km/h] ff [kn] dd ppp [hPa] vv [km]
26.09.2018 17:00:00 32,4 18,1 28 15 ESE 1020,5 10
26.09.2018 16:00:00 32,5 18,1 26 14 ESE 1020,8 10
26.09.2018 15:00:00 32,7 18,5 26 14 ESE 1021,1 10
26.09.2018 14:00:00 32,2 18,5 29 16 E 1021,6 10
26.09.2018 13:00:00 31,9 18,4 26 14 E 1022,0 10
26.09.2018 12:00:00 30,7 18,7 16 9 ESE 1022,1 10
26.09.2018 11:00:00 29,3 17,4 9 5 SSE 1021,7 10
26.09.2018 10:00:00 27,7 17,8 8 4 SE 1021,1 10
26.09.2018 09:00:00 25,2 17,1 11 6 E 1020,8 10
26.09.2018 08:00:00 24,3 17,3 13 7 E 1020,3 10
26.09.2018 07:00:00 24,2 17,4 9 5 E 1019,8 10
26.09.2018 06:00:00 24,6 17,3 15 8 E 1019,6 10
26.09.2018 05:00:00 25,0 17,7 22 12 E 1019,4 10
26.09.2018 04:00:00 25,2 17,7 21 11 E 1019,6 10
26.09.2018 03:00:00 23,7 17,9 9 5 E 1019,8 10
26.09.2018 02:00:00 23,8 16,6 5 3 SSE 1019,9 10
26.09.2018 01:00:00 22,3 16,8 4 2 - 1019,6 10
26.09.2018 00:00:00 22,9 16,9 5 3 E 1019,5 10
25.09.2018 23:00:00 24,2 17,6 2 1 - 1019,2 10
25.09.2018 22:00:00 26,0 17,6 5 3 SE 1018,4 10
25.09.2018 21:00:00 27,7 18,7 16 9 ESE 1018,0 10
25.09.2018 20:00:00 30,3 17,4 11 6 SSE 1017,4 10
25.09.2018 19:00:00 32,0 17,5 21 11 SSE 1017,2 10
25.09.2018 18:00:00 33,8 16,6 22 12 SE 1017,3 10
25.09.2018 17:00:00 34,7 17,4 22 12 SE 1017,4 10
25.09.2018 16:00:00 35,5 16,3 21 11 SSE 1017,6 10
25.09.2018 15:00:00 35,6 15,5 18 10 SSE 1018,3 10
25.09.2018 14:00:00 35,9 12,4 11 6 E 1019,0 10
25.09.2018 13:00:00 35,2 12,4 4 2 - 1019,4 10
25.09.2018 12:00:00 32,6 12,3 4 2 - 1019,6 10
25.09.2018 11:00:00 29,7 13,5 5 3 SE 1019,5 10
25.09.2018 10:00:00 25,0 13,9 2 1 - 1019,2 10
25.09.2018 09:00:00 18,2 12,2 0 0 N 1018,8 10
25.09.2018 08:00:00 16,6 10,9 0 0 N 1018,5 10
25.09.2018 07:00:00 18,0 11,1 2 1 - 1017,8 10
25.09.2018 06:00:00 19,0 11,6 0 0 N 1017,8 10
25.09.2018 05:00:00 18,9 11,0 5 3 - 1017,8 10
25.09.2018 04:00:00 19,2 10,4 0 0 N 1018,0 10
25.09.2018 03:00:00 20,7 10,3 5 3 E 1018,2 10
25.09.2018 02:00:00 21,1 9,9 8 4 NNW 1018,3 10
25.09.2018 01:00:00 22,8 11,1 0 0 N 1018,3 10
25.09.2018 00:00:00 22,9 11,0 2 1 - 1018,4 10
24.09.2018 23:00:00 25,4 10,8 9 5 SE 1018,1 10
24.09.2018 22:00:00 27,1 11,6 4 2 - 1017,4 10
24.09.2018 21:00:00 28,9 11,5 9 5 SSW 1016,9 10
24.09.2018 20:00:00 33,3 12,9 11 6 S 1016,8 10
24.09.2018 19:00:00 36,3 13,4 16 9 S 1016,2 10
24.09.2018 18:00:00 38,0 13,9 18 10 SSW 1015,8 10
24.09.2018 17:00:00 38,9 13,3 13 7 S 1016,2 10
24.09.2018 16:00:00 39,3 12,1 9 5 E 1016,7 10
24.09.2018 15:00:00 38,6 11,6 5 3 - 1017,4 10
24.09.2018 14:00:00 37,2 11,9 4 2 NE 1018,2 10
24.09.2018 13:00:00 36,1 11,7 11 6 E 1019,1 10
24.09.2018 12:00:00 34,5 12,2 9 5 NE 1019,5 10
24.09.2018 11:00:00 30,4 14,1 2 1 - 1019,4 10
24.09.2018 10:00:00 25,5 12,7 9 5 ENE 1019,3 10
24.09.2018 09:00:00 19,8 12,2 11 6 NNE 1018,9 10
24.09.2018 08:00:00 17,1 11,0 4 2 NNE 1018,6 10
24.09.2018 07:00:00 16,6 11,6 8 4 NNE 1018,7 10
24.09.2018 06:00:00 16,5 12,6 5 3 NE 1018,7 10
24.09.2018 05:00:00 17,6 11,2 4 2 NNW 1019,1 10
24.09.2018 04:00:00 18,4 12,3 0 0 N 1019,0 10
24.09.2018 03:00:00 18,5 12,5 4 2 - 1019,1 10
24.09.2018 02:00:00 19,6 12,6 0 0 N 1019,3 10
24.09.2018 01:00:00 21,1 11,7 9 5 NNW 1019,1 10
24.09.2018 00:00:00 23,1 13,3 5 3 SSE 1018,9 10
23.09.2018 23:00:00 26,2 13,3 11 6 SSE 1019,0 10
23.09.2018 22:00:00 26,0 11,7 4 2 - 1018,8 10
23.09.2018 21:00:00 29,1 11,9 11 6 ESE 1018,1 10
23.09.2018 20:00:00 32,6 11,4 15 8 SE 1017,9 10
23.09.2018 19:00:00 35,0 10,8 16 9 SSE 1017,5 10
23.09.2018 18:00:00 36,6 10,7 18 10 S 1017,2 10
23.09.2018 17:00:00 37,4 10,7 21 11 S 1017,5 10
23.09.2018 16:00:00 38,5 10,0 13 7 SE 1017,9 10
23.09.2018 15:00:00 38,0 10,4 9 5 SE 1018,6 10
23.09.2018 14:00:00 37,0 10,3 9 5 NNE 1019,5 10
23.09.2018 13:00:00 36,0 11,7 9 5 E 1019,9 10
23.09.2018 12:00:00 34,2 12,0 9 5 E 1020,4 10
23.09.2018 11:00:00 29,5 13,2 4 2 - 1020,5 10
23.09.2018 10:00:00 24,4 14,2 2 1 - 1020,6 10
23.09.2018 09:00:00 19,3 12,6 2 1 - 1019,9 10
23.09.2018 08:00:00 17,6 11,0 0 0 N 1019,6 10
23.09.2018 07:00:00 17,8 11,3 11 6 ENE 1019,4 10
23.09.2018 06:00:00 18,0 11,1 9 5 ENE 1019,6 10
23.09.2018 05:00:00 19,6 11,5 9 5 NNE 1019,6 10
23.09.2018 04:00:00 17,7 10,0 11 6 N 1020,0 10
23.09.2018 03:00:00 17,7 11,3 4 2 NNW 1020,4 10
23.09.2018 02:00:00 20,8 11,0 2 1 SW 1020,3 10
23.09.2018 01:00:00 21,1 10,3 0 0 N 1020,5 10
23.09.2018 00:00:00 24,5 10,4 8 4 SE 1020,5 10
22.09.2018 23:00:00 26,6 8,9 15 8 SSE 1020,2 10
22.09.2018 22:00:00 29,2 9,3 16 9 SE 1019,5 10
22.09.2018 21:00:00 29,2 9,3 15 8 SE 1018,8 10
22.09.2018 20:00:00 31,9 10,5 11 6 SE 1018,5 10
22.09.2018 19:00:00 34,3 10,8 24 13 SE 1018,2 10
22.09.2018 18:00:00 35,6 9,3 31 17 SE 1018,1 10
22.09.2018 17:00:00 36,3 11,9 26 14 ESE 1018,1 10
22.09.2018 16:00:00 37,4 14,1 21 11 ESE 1018,5 10
22.09.2018 15:00:00 37,2 14,5 11 6 E 1018,9 10
22.09.2018 14:00:00 36,3 14,9 11 6 - 1019,6 10
22.09.2018 13:00:00 34,4 15,3 5 3 - 1020,2 10
22.09.2018 12:00:00 31,2 17,9 4 2 - 1020,5 10
22.09.2018 11:00:00 28,1 17,9 2 1 - 1020,4 10
22.09.2018 10:00:00 23,5 16,2 0 0 N 1020,3 10
22.09.2018 09:00:00 18,6 15,1 0 0 N 1019,7 10
22.09.2018 08:00:00 17,2 13,7 0 0 N 1019,2 10
22.09.2018 07:00:00 17,5 14,0 4 2 - 1018,9 10
22.09.2018 06:00:00 17,7 14,6 5 3 NNE 1018,4 10
22.09.2018 05:00:00 18,5 15,0 2 1 ESE 1018,2 10
22.09.2018 04:00:00 19,4 15,3 4 2 SE 1018,5 10
22.09.2018 03:00:00 20,2 15,2 2 1 NE 1018,9 10
22.09.2018 02:00:00 20,6 15,6 5 3 E 1019,0 10
22.09.2018 01:00:00 22,1 16,8 0 0 N 1018,8 10
22.09.2018 00:00:00 24,0 16,9 5 3 S 1018,8 10
21.09.2018 23:00:00 24,8 18,3 8 4 SSW 1018,6 10
21.09.2018 22:00:00 26,0 21,2 9 5 S 1017,8 10
21.09.2018 21:00:00 27,3 21,8 11 6 S 1017,1 10
21.09.2018 20:00:00 31,2 19,8 9 5 W 1016,5 10
21.09.2018 19:00:00 33,2 20,4 15 8 W 1016,1 10
21.09.2018 18:00:00 35,9 17,0 9 5 SW 1015,8 10
21.09.2018 17:00:00 35,6 16,7 4 2 ENE 1016,1 10
21.09.2018 16:00:00 35,4 17,6 8 4 - 1016,6 10
21.09.2018 15:00:00 33,7 18,7 4 2 - 1017,3 10
21.09.2018 14:00:00 32,8 19,8 5 3 - 1018,3 10
21.09.2018 13:00:00 31,3 19,5 2 1 NNW 1018,8 10
21.09.2018 12:00:00 29,4 19,7 5 3 ENE 1018,8 10
21.09.2018 11:00:00 26,4 20,0 4 2 - 1018,5 10
21.09.2018 10:00:00 23,2 19,6 4 2 - 1018,4 10
21.09.2018 09:00:00 19,1 18,4 2 1 - 1018,2 10
21.09.2018 08:00:00 17,6 16,8 0 0 N 1017,4 10
21.09.2018 07:00:00 17,5 16,9 4 2 E 1017,2 10
21.09.2018 06:00:00 17,3 16,5 2 1 - 1017,3 10
21.09.2018 05:00:00 17,6 17,0 4 2 N 1017,4 10
21.09.2018 04:00:00 17,8 17,2 0 0 N 1017,4 10
21.09.2018 03:00:00 17,9 16,9 4 2 NE 1017,8 10
21.09.2018 02:00:00 19,2 18,1 2 1 - 1018,1 10
21.09.2018 01:00:00 20,0 18,3 4 2 N 1018,2 10
21.09.2018 00:00:00 21,3 19,2 0 0 N 1018,1 10
20.09.2018 23:00:00 23,4 19,8 5 3 WSW 1017,9 10
20.09.2018 22:00:00 25,0 20,0 4 2 - 1017,6 10
20.09.2018 21:00:00 27,1 19,3 9 5 SW 1017,1 10
20.09.2018 20:00:00 29,6 17,1 11 6 SSE 1016,7 10
20.09.2018 19:00:00 31,8 18,0 13 7 SSE 1016,2 10
20.09.2018 18:00:00 33,4 17,7 13 7 SSE 1016,4 10
20.09.2018 17:00:00 33,2 17,0 11 6 - 1016,8 10

tt = temperature
td = dewpoint
ff = wind speed
dd = wind direction
ppp = reduced air pressure
vv = visibility

Next stations